CZ-2F R/B (53358 NORAD) Tracking and Keplerian Element Data

This shows tracking and keplerian element data for the satellite.

Feedback or suggestion? Click here.




ElementValue
Catalog53358
NameCZ-2F R/B
Epoch Orbit381
Epoch Day241.55676817
Epoch Year2022
RAAN39.8954
Inclination49.9915
Eccentricity0.0179117
Argument of Perigee251.363
Mean Anonmoly106.7806
Mean Motion15.32648764
Decay Rate7.694E-05
L11 53358U 22093B 22241.55676817 .00007694 00000+0 15234-3 0 9999
L22 53358 49.9915 39.8954 0179117 251.3630 106.7806 15.32648764 3813



Live tracking and technical data element details for CZ-2F R/B (NORAD 53358). CZ-2F R/B can be tracked NOW for your location showing map with azimuth and elevation plus other details from your city location.







IsCatalogInMostPopularTable: catalog: 53358, numindb: 7
Update: records affected: 1



GetName: 53358 CZ-2F R/B

Hit Count: updated at: Thu, 08 Dec 2022 08:27:22 GMT